• In Spain
  • List of Countries
  • For 7 days
  • Water Temperature
  • Satellite Maps
  • Weather Map
  • Weather Widgets
  • user-avatar
    Login

    Hourly Weather Andora

    Today, 19 February, Monday

    Time Temperature Precipitation Wind Pressure Humidity
    00:00 0°C° 0.2 mm 1 mps 623 mmHg 90%
    01:00 0°C° 0.1 mm 1 mps 622 mmHg 90%
    02:00 0°C° 0.1 mm 1 mps 622 mmHg 91%
    03:00 -1°C° 0.1 mm 1 mps 622 mmHg 92%
    04:00 -1°C° 0.1 mm 1 mps 622 mmHg 92%
    05:00 -1°C° 0.1 mm 1 mps 622 mmHg 92%
    06:00 -1°C° 0.1 mm 1 mps 622 mmHg 92%
    07:00 0°C° 0 mm 1 mps 622 mmHg 89%
    08:00 +1°C° 0 mm 1 mps 622 mmHg 87%
    09:00 +2°C° 0 mm 1 mps 623 mmHg 84%
    10:00 +3°C° 0.1 mm 1 mps 623 mmHg 83%
    11:00 +2°C° 0.1 mm 2 mps 623 mmHg 81%
    12:00 +3°C° 0.1 mm 2 mps 623 mmHg 79%
    13:00 +3°C° 0.1 mm 2 mps 623 mmHg 80%
    14:00 +3°C° 0.1 mm 2 mps 623 mmHg 81%
    15:00 +3°C° 0.1 mm 2 mps 622 mmHg 81%
    16:00 +2°C° 0.1 mm 2 mps 622 mmHg 84%
    17:00 +1°C° 0.1 mm 2 mps 621 mmHg 87%
    18:00 -1°C° 0.1 mm 2 mps 621 mmHg 90%
    19:00 -1°C° 0.3 mm 2 mps 621 mmHg 90%
    20:00 -2°C° 0.3 mm 2 mps 621 mmHg 91%
    21:00 -2°C° 0.3 mm 2 mps 621 mmHg 91%
    22:00 -2°C° 0.5 mm 2 mps 621 mmHg 91%
    23:00 -2°C° 0.5 mm 2 mps 621 mmHg 92%

    Tomorrow, 20 February, Tuesday

    Time Temperature Precipitation Wind Pressure Humidity
    00:00 -2°C° 0.5 mm 2 mps 621 mmHg 92%
    01:00 -2°C° 0.6 mm 2 mps 620 mmHg 92%
    02:00 -2°C° 0.6 mm 2 mps 620 mmHg 91%
    03:00 -2°C° 0.6 mm 2 mps 620 mmHg 91%
    04:00 -2°C° 0.5 mm 3 mps 620 mmHg 91%
    05:00 -2°C° 0.5 mm 3 mps 620 mmHg 90%
    06:00 -2°C° 0.5 mm 3 mps 619 mmHg 89%
    07:00 -1°C° 0.4 mm 3 mps 620 mmHg 88%
    08:00 -1°C° 0.4 mm 3 mps 620 mmHg 87%
    09:00 0°C° 0.4 mm 3 mps 621 mmHg 85%
    10:00 0°C° 0.5 mm 4 mps 621 mmHg 84%
    11:00 0°C° 0.5 mm 4 mps 621 mmHg 82%
    12:00 +1°C° 0.5 mm 4 mps 621 mmHg 80%
    13:00 +1°C° 0.5 mm 4 mps 620 mmHg 79%
    14:00 0°C° 0.5 mm 4 mps 620 mmHg 77%
    15:00 0°C° 0.5 mm 4 mps 620 mmHg 76%
    16:00 -1°C° 0.4 mm 4 mps 619 mmHg 78%
    17:00 -1°C° 0.4 mm 4 mps 619 mmHg 80%
    18:00 -2°C° 0.4 mm 4 mps 619 mmHg 82%
    19:00 -3°C° 0.3 mm 4 mps 619 mmHg 83%
    20:00 -3°C° 0.3 mm 4 mps 619 mmHg 83%
    21:00 -3°C° 0.3 mm 4 mps 619 mmHg 84%
    22:00 -4°C° 0.2 mm 4 mps 618 mmHg 84%
    23:00 -4°C° 0.2 mm 4 mps 618 mmHg 85%

    Day after tomorrow, 21 February, Wednesday

    Time Temperature Precipitation Wind Pressure Humidity
    00:00 -4°C° 0.2 mm 3 mps 618 mmHg 85%
    01:00 -4°C° 0.4 mm 3 mps 617 mmHg 85%
    02:00 -4°C° 0.4 mm 3 mps 617 mmHg 86%
    03:00 -4°C° 0.4 mm 3 mps 616 mmHg 86%
    04:00 -5°C° 0.6 mm 3 mps 616 mmHg 86%
    05:00 -5°C° 0.6 mm 3 mps 616 mmHg 86%
    06:00 -5°C° 0.6 mm 3 mps 616 mmHg 86%
    07:00 -5°C° 0.2 mm 3 mps 616 mmHg 84%
    08:00 -5°C° 0.2 mm 3 mps 616 mmHg 81%
    09:00 -5°C° 0.2 mm 3 mps 617 mmHg 79%
    10:00 -4°C° 0 mm 3 mps 617 mmHg 73%
    11:00 -4°C° 0 mm 3 mps 617 mmHg 67%
    12:00 -2°C° 0 mm 3 mps 617 mmHg 61%
    13:00 -2°C° 0 mm 3 mps 617 mmHg 61%
    14:00 -2°C° 0 mm 3 mps 617 mmHg 61%
    15:00 -2°C° 0 mm 3 mps 616 mmHg 61%
    16:00 -5°C° 0 mm 3 mps 616 mmHg 67%
    17:00 -6°C° 0 mm 3 mps 616 mmHg 72%
    18:00 -7°C° 0 mm 2 mps 615 mmHg 77%
    19:00 -9°C° 0 mm 3 mps 615 mmHg 77%
    20:00 -10°C° 0 mm 3 mps 615 mmHg 78%
    21:00 -10°C° 0 mm 3 mps 615 mmHg 78%
    22:00 -10°C° 0 mm 2 mps 614 mmHg 77%
    23:00 -10°C° 0 mm 2 mps 614 mmHg 76%

    22 February, Thursday

    Time Temperature Precipitation Wind Pressure Humidity
    00:00 -10°C° 0 mm 2 mps 614 mmHg 75%
    01:00 -10°C° 0 mm 2 mps 613 mmHg 76%
    02:00 -10°C° 0 mm 2 mps 613 mmHg 77%
    03:00 -13°C° 0 mm 3 mps 612 mmHg 78%
    04:00 -12°C° 0 mm 3 mps 612 mmHg 78%
    05:00 -12°C° 0 mm 3 mps 611 mmHg 78%
    06:00 -12°C° 0 mm 3 mps 611 mmHg 79%
    07:00 -10°C° 0 mm 3 mps 611 mmHg 76%
    08:00 -9°C° 0 mm 3 mps 612 mmHg 73%
    09:00 -7°C° 0 mm 3 mps 612 mmHg 70%
    10:00 -7°C° 0.1 mm 3 mps 612 mmHg 68%
    11:00 -6°C° 0.1 mm 3 mps 612 mmHg 66%
    12:00 -5°C° 0.1 mm 3 mps 612 mmHg 64%
    13:00 -6°C° 0.2 mm 3 mps 611 mmHg 68%
    14:00 -6°C° 0.2 mm 3 mps 611 mmHg 72%
    15:00 -7°C° 0.2 mm 3 mps 611 mmHg 76%
    16:00 -6°C° 0.3 mm 2 mps 610 mmHg 80%
    17:00 -7°C° 0.3 mm 2 mps 610 mmHg 85%
    18:00 -8°C° 0.3 mm 2 mps 610 mmHg 89%
    19:00 -9°C° 0.2 mm 2 mps 610 mmHg 88%
    20:00 -9°C° 0.2 mm 2 mps 610 mmHg 88%
    21:00 -10°C° 0.2 mm 2 mps 610 mmHg 87%
    22:00 -10°C° 0 mm 2 mps 610 mmHg 85%
    23:00 -9°C° 0 mm 1 mps 610 mmHg 84%

    23 February, Friday

    Time Temperature Precipitation Wind Pressure Humidity
    00:00 -9°C° 0 mm 1 mps 610 mmHg 82%
    01:00 -9°C° 0.1 mm 1 mps 610 mmHg 82%
    02:00 -8°C° 0.1 mm 1 mps 610 mmHg 82%
    03:00 -8°C° 0.1 mm 1 mps 610 mmHg 82%
    04:00 -8°C° 0.1 mm 1 mps 610 mmHg 82%
    05:00 -8°C° 0.1 mm 1 mps 610 mmHg 83%
    06:00 -8°C° 0.1 mm 1 mps 610 mmHg 84%
    07:00 -7°C° 0.1 mm 1 mps 611 mmHg 81%
    08:00 -7°C° 0.1 mm 2 mps 611 mmHg 78%
    09:00 -5°C° 0.1 mm 2 mps 612 mmHg 75%
    10:00 -4°C° 0 mm 2 mps 612 mmHg 73%
    11:00 -3°C° 0 mm 2 mps 613 mmHg 71%
    12:00 -2°C° 0 mm 2 mps 613 mmHg 69%
    13:00 0°C° 0.1 mm 1 mps 613 mmHg 70%
    14:00 0°C° 0.1 mm 1 mps 613 mmHg 72%
    15:00 0°C° 0.1 mm 1 mps 613 mmHg 73%
    16:00 -1°C° 0.1 mm 1 mps 613 mmHg 79%
    17:00 -3°C° 0.1 mm 1 mps 612 mmHg 85%
    18:00 -4°C° 0.1 mm 1 mps 612 mmHg 91%
    19:00 -6°C° 0 mm 1 mps 612 mmHg 90%
    20:00 -6°C° 0 mm 1 mps 613 mmHg 90%
    21:00 -7°C° 0 mm 1 mps 613 mmHg 89%
    22:00 -7°C° 0 mm 1 mps 613 mmHg 88%
    23:00 -8°C° 0 mm 1 mps 613 mmHg 86%

    24 February, Saturday

    Time Temperature Precipitation Wind Pressure Humidity
    00:00 -8°C° 0 mm 1 mps 613 mmHg 85%
    01:00 -8°C° 0 mm 1 mps 613 mmHg 84%
    02:00 -8°C° 0 mm 1 mps 613 mmHg 84%
    03:00 -8°C° 0 mm 1 mps 613 mmHg 83%
    04:00 -8°C° 0 mm 1 mps 613 mmHg 82%
    05:00 -8°C° 0 mm 1 mps 613 mmHg 81%
    06:00 -8°C° 0 mm 1 mps 613 mmHg 80%
    07:00 -6°C° 0 mm 1 mps 614 mmHg 75%
    08:00 -3°C° 0 mm 1 mps 615 mmHg 70%
    09:00 -2°C° 0 mm 0 mps 616 mmHg 65%
    10:00 0°C° 0 mm 1 mps 616 mmHg 62%
    11:00 +1°C° 0 mm 1 mps 617 mmHg 60%
    12:00 +2°C° 0 mm 1 mps 617 mmHg 58%
    13:00 +1°C° 0 mm 2 mps 617 mmHg 59%
    14:00 +1°C° 0 mm 2 mps 616 mmHg 61%
    15:00 +1°C° 0 mm 2 mps 616 mmHg 63%
    16:00 -2°C° 0 mm 2 mps 615 mmHg 71%
    17:00 -4°C° 0 mm 2 mps 615 mmHg 79%
    18:00 -6°C° 0 mm 2 mps 614 mmHg 86%
    19:00 -7°C° 0 mm 2 mps 614 mmHg 85%
    20:00 -7°C° 0 mm 2 mps 614 mmHg 84%
    21:00 -8°C° 0 mm 2 mps 614 mmHg 82%
    22:00 -8°C° 0 mm 2 mps 614 mmHg 78%
    23:00 -8°C° 0 mm 2 mps 614 mmHg 74%
    Show more